VINASAT-1

Last updated on Sat Sep 12 2026 00:03:00 GMT+0000 (Coordinated Universal Time)

1 32767U 08018A 26254.60761492 -.00000345 00000+0 00000+0 0 9997 2 32767 0.0405 304.3659 0001850 244.7698 152.1748 1.00272886 67454
UTC large
Height (km)
Speed (km/s)
/
Latitude / Longitude
Inclination (degrees)
Orbital Period (minutes)
Azimuth
Elevation
Range (km)
Doppler Factor

Next 0 passes for location: London (51.5072 / 0.1276)

No passes found over London.
VINASAT-1